{"data":{"norad_id":61510,"intl_designator":"2024-183B","name":"STARLINK-32139","alt_names":[],"object_type":"PAYLOAD","status":"ACTIVE","operator":null,"country":"US","launch_date":"2024-10-15","launch_site_code":"AFETR","launch_vehicle":null,"mission":null,"orbit_class":"UNKNOWN","rcs_meters":null,"size_class":null,"mass_kg":null,"dimensions":null,"purposes":["comms"],"wikipedia_slug":null,"has_3d_model":false,"image_url":null,"decayed_at":null,"tle_current":{"epoch":"2026-09-21T10:30:59.177952Z","epoch_age_seconds":111101,"freshness":"FRESH","line1":"1 61510U 24183B   26264.43818493 -.00005223  00000+0 -15662-3 0  9997","line2":"2 61510  53.1612 311.7186 0001476  78.7057 281.4110 15.31706405109641","mean_motion":15.31706405,"eccentricity":0.0001476,"inclination_deg":53.1612,"raan_deg":311.7186,"arg_perigee_deg":78.7057,"mean_anomaly_deg":281.411,"bstar":-0.00015662,"rev_number":10964,"period_min":94.01279483453,"perigee_km":469.71001089409,"apogee_km":471.73179374685,"semimajor_km":6848.8579023205,"source":"CELESTRAK","updated_at":"2026-09-22T09:00:49.354066Z"}}}